Year,Month,Day,Hour,Minute,Value (Times are PST for temperature in C)
2018,04,26,00,00,10.60
2018,04,26,00,01,10.60
2018,04,26,00,02,10.60
2018,04,26,00,03,10.60
2018,04,26,00,04,10.60
2018,04,26,00,05,10.50
2018,04,26,00,06,10.50
2018,04,26,00,07,10.50
2018,04,26,00,08,10.50
2018,04,26,00,09,10.40
2018,04,26,00,10,10.40
2018,04,26,00,11,10.40
2018,04,26,00,12,10.40
2018,04,26,00,13,10.40
2018,04,26,00,14,10.40
2018,04,26,00,15,10.40
2018,04,26,00,16,10.40
2018,04,26,00,17,10.40
2018,04,26,00,18,10.30
2018,04,26,00,19,10.30
2018,04,26,00,20,10.30
2018,04,26,00,21,10.30
2018,04,26,00,22,10.30
2018,04,26,00,23,10.30
2018,04,26,00,24,10.20
2018,04,26,00,25,10.20
2018,04,26,00,26,10.20
2018,04,26,00,27,10.20
2018,04,26,00,28,10.10
2018,04,26,00,29,10.10
2018,04,26,00,30,10.10
2018,04,26,00,31,10.10
2018,04,26,00,32,10.00
2018,04,26,00,33,10.00
2018,04,26,00,34,9.90
2018,04,26,00,35,9.90
2018,04,26,00,36,9.90
2018,04,26,00,37,9.80
2018,04,26,00,38,9.80
2018,04,26,00,39,9.80
2018,04,26,00,40,9.70
2018,04,26,00,41,9.70
2018,04,26,00,42,9.60
2018,04,26,00,43,9.60
2018,04,26,00,44,9.50
2018,04,26,00,45,9.50
2018,04,26,00,46,9.40
2018,04,26,00,47,9.40
2018,04,26,00,48,9.40
2018,04,26,00,49,9.40
2018,04,26,00,50,9.30
2018,04,26,00,51,9.30
2018,04,26,00,52,9.30
2018,04,26,00,53,9.30
2018,04,26,00,54,9.30
2018,04,26,00,55,9.20
2018,04,26,00,56,9.20
2018,04,26,00,57,9.20
2018,04,26,00,58,9.20
2018,04,26,00,59,9.20
2018,04,26,01,00,9.20
2018,04,26,01,01,9.10
2018,04,26,01,02,9.10
2018,04,26,01,03,9.10
2018,04,26,01,04,9.10
2018,04,26,01,05,9.00
2018,04,26,01,06,9.00
2018,04,26,01,07,8.90
2018,04,26,01,08,8.90
2018,04,26,01,09,8.90
2018,04,26,01,10,8.90
2018,04,26,01,11,8.80
2018,04,26,01,12,8.80
2018,04,26,01,13,8.80
2018,04,26,01,14,8.80
2018,04,26,01,15,8.80
2018,04,26,01,16,8.80
2018,04,26,01,17,8.80
2018,04,26,01,18,8.80
2018,04,26,01,19,8.80
2018,04,26,01,20,8.80
2018,04,26,01,21,8.80
2018,04,26,01,22,8.80
2018,04,26,01,23,8.70
2018,04,26,01,24,8.70
2018,04,26,01,25,8.70
2018,04,26,01,26,8.70
2018,04,26,01,27,8.70
2018,04,26,01,28,8.70
2018,04,26,01,29,8.60
2018,04,26,01,30,8.60
2018,04,26,01,31,8.60
2018,04,26,01,32,8.60
2018,04,26,01,33,8.60
2018,04,26,01,34,8.60
2018,04,26,01,35,8.50
2018,04,26,01,36,8.50
2018,04,26,01,37,8.50
2018,04,26,01,38,8.40
2018,04,26,01,39,8.40
2018,04,26,01,40,8.30
2018,04,26,01,41,8.30
2018,04,26,01,42,8.30
2018,04,26,01,43,8.20
2018,04,26,01,44,8.20
2018,04,26,01,45,8.20
2018,04,26,01,46,8.10
2018,04,26,01,47,8.10
2018,04,26,01,48,8.00
2018,04,26,01,49,8.00
2018,04,26,01,50,7.90
2018,04,26,01,51,7.90
2018,04,26,01,52,7.90
2018,04,26,01,53,7.90
2018,04,26,01,54,7.90
2018,04,26,01,55,7.90
2018,04,26,01,56,7.80
2018,04,26,01,57,7.80
2018,04,26,01,58,7.80
2018,04,26,01,59,7.70
2018,04,26,02,00,7.70
2018,04,26,02,01,7.70
2018,04,26,02,02,7.70
2018,04,26,02,03,7.70
2018,04,26,02,04,7.60
2018,04,26,02,05,7.60
2018,04,26,02,06,7.60
2018,04,26,02,07,7.60
2018,04,26,02,08,7.60
2018,04,26,02,09,7.60
2018,04,26,02,10,7.60
2018,04,26,02,11,7.60
2018,04,26,02,12,7.60
2018,04,26,02,13,7.60
2018,04,26,02,14,7.60
2018,04,26,02,15,7.60
2018,04,26,02,16,7.60
2018,04,26,02,17,7.60
2018,04,26,02,18,7.60
2018,04,26,02,19,7.60
2018,04,26,02,20,7.70
2018,04,26,02,21,7.70
2018,04,26,02,22,7.60
2018,04,26,02,23,7.60
2018,04,26,02,24,7.60
2018,04,26,02,25,7.60
2018,04,26,02,26,7.60
2018,04,26,02,27,7.60
2018,04,26,02,28,7.50
2018,04,26,02,29,7.50
2018,04,26,02,30,7.50
2018,04,26,02,31,7.40
2018,04,26,02,32,7.40
2018,04,26,02,33,7.40
2018,04,26,02,34,7.30
2018,04,26,02,35,7.30
2018,04,26,02,36,7.30
2018,04,26,02,37,7.30
2018,04,26,02,38,7.30
2018,04,26,02,39,7.30
2018,04,26,02,40,7.30
2018,04,26,02,41,7.30
2018,04,26,02,42,7.20
2018,04,26,02,43,7.20
2018,04,26,02,44,7.20
2018,04,26,02,45,7.20
2018,04,26,02,46,7.20
2018,04,26,02,47,7.20
2018,04,26,02,48,7.10
2018,04,26,02,49,7.10
2018,04,26,02,50,7.00
2018,04,26,02,51,7.00
2018,04,26,02,52,6.90
2018,04,26,02,53,6.90
2018,04,26,02,54,6.80
2018,04,26,02,55,6.80
2018,04,26,02,56,6.80
2018,04,26,02,57,6.80
2018,04,26,02,58,6.70
2018,04,26,02,59,6.70
2018,04,26,03,00,6.70
2018,04,26,03,01,6.70
2018,04,26,03,02,6.70
2018,04,26,03,03,6.60
2018,04,26,03,04,6.60
2018,04,26,03,05,6.60
2018,04,26,03,06,6.60
2018,04,26,03,07,6.60
2018,04,26,03,08,6.60
2018,04,26,03,09,6.60
2018,04,26,03,10,6.60
2018,04,26,03,11,6.50
2018,04,26,03,12,6.50
2018,04,26,03,13,6.50
2018,04,26,03,14,6.50
2018,04,26,03,15,6.40
2018,04,26,03,16,6.40
2018,04,26,03,17,6.40
2018,04,26,03,18,6.40
2018,04,26,03,19,6.40
2018,04,26,03,20,6.40
2018,04,26,03,21,6.40
2018,04,26,03,22,6.40
2018,04,26,03,23,6.40
2018,04,26,03,24,6.40
2018,04,26,03,25,6.30
2018,04,26,03,26,6.30
2018,04,26,03,27,6.20
2018,04,26,03,28,6.20
2018,04,26,03,29,6.20
2018,04,26,03,30,6.20
2018,04,26,03,31,6.20
2018,04,26,03,32,6.20
2018,04,26,03,33,6.20
2018,04,26,03,34,6.20
2018,04,26,03,35,6.20
2018,04,26,03,36,6.20
2018,04,26,03,37,6.20
2018,04,26,03,38,6.20
2018,04,26,03,39,6.20
2018,04,26,03,40,6.20
2018,04,26,03,41,6.20
2018,04,26,03,42,6.20
2018,04,26,03,43,6.20
2018,04,26,03,44,6.20
2018,04,26,03,45,6.20
2018,04,26,03,46,6.10
2018,04,26,03,47,6.10
2018,04,26,03,48,6.10
2018,04,26,03,49,6.00
2018,04,26,03,50,6.00
2018,04,26,03,51,6.00
2018,04,26,03,52,5.90
2018,04,26,03,53,5.90
2018,04,26,03,54,5.90
2018,04,26,03,55,5.90
2018,04,26,03,56,5.90
2018,04,26,03,57,5.90
2018,04,26,03,58,5.90
2018,04,26,03,59,5.90
2018,04,26,04,00,5.90
2018,04,26,04,01,5.90
2018,04,26,04,02,5.90
2018,04,26,04,03,5.90
2018,04,26,04,04,5.90
2018,04,26,04,05,5.90
2018,04,26,04,06,5.80
2018,04,26,04,07,5.80
2018,04,26,04,08,5.80
2018,04,26,04,09,5.80
2018,04,26,04,10,5.80
2018,04,26,04,11,5.80
2018,04,26,04,12,5.80
2018,04,26,04,13,5.80
2018,04,26,04,14,5.80
2018,04,26,04,15,5.80
2018,04,26,04,16,5.80
2018,04,26,04,17,5.70
2018,04,26,04,18,5.70
2018,04,26,04,19,5.70
2018,04,26,04,20,5.70
2018,04,26,04,21,5.70
2018,04,26,04,22,5.70
2018,04,26,04,23,5.70
2018,04,26,04,24,5.70
2018,04,26,04,25,5.70
2018,04,26,04,26,5.70
2018,04,26,04,27,5.70
2018,04,26,04,28,5.60
2018,04,26,04,29,5.60
2018,04,26,04,30,5.60
2018,04,26,04,31,5.60
2018,04,26,04,32,5.70
2018,04,26,04,33,5.70
2018,04,26,04,34,5.70
2018,04,26,04,35,5.70
2018,04,26,04,36,5.70
2018,04,26,04,37,5.60
2018,04,26,04,38,5.60
2018,04,26,04,39,5.60
2018,04,26,04,40,5.60
2018,04,26,04,41,5.50
2018,04,26,04,42,5.50
2018,04,26,04,43,5.50
2018,04,26,04,44,5.40
2018,04,26,04,45,5.40
2018,04,26,04,46,5.40
2018,04,26,04,47,5.30
2018,04,26,04,48,5.30
2018,04,26,04,49,5.30
2018,04,26,04,50,5.30
2018,04,26,04,51,5.20
2018,04,26,04,52,5.20
2018,04,26,04,53,5.20
2018,04,26,04,54,5.20
2018,04,26,04,55,5.20
2018,04,26,04,56,5.20
2018,04,26,04,57,5.10
2018,04,26,04,58,5.10
2018,04,26,04,59,5.10
2018,04,26,05,00,5.10
2018,04,26,05,01,5.10
2018,04,26,05,02,5.10
2018,04,26,05,03,5.10
2018,04,26,05,04,5.20
2018,04,26,05,05,5.20
2018,04,26,05,06,5.20
2018,04,26,05,07,5.20
2018,04,26,05,08,5.20
2018,04,26,05,09,5.20
2018,04,26,05,10,5.20
2018,04,26,05,11,5.20
2018,04,26,05,12,5.20
2018,04,26,05,13,5.10
2018,04,26,05,14,5.10
2018,04,26,05,15,5.10
2018,04,26,05,16,5.10
2018,04,26,05,17,5.10
2018,04,26,05,18,5.10
2018,04,26,05,19,5.00
2018,04,26,05,20,5.00
2018,04,26,05,21,5.00
2018,04,26,05,22,5.00
2018,04,26,05,23,4.90
2018,04,26,05,24,4.90
2018,04,26,05,25,4.90
2018,04,26,05,26,4.90
2018,04,26,05,27,4.90
2018,04,26,05,28,4.90
2018,04,26,05,29,4.90
2018,04,26,05,30,4.90
2018,04,26,05,31,4.90
2018,04,26,05,32,4.90
2018,04,26,05,33,4.90
2018,04,26,05,34,4.90
2018,04,26,05,35,4.90
2018,04,26,05,36,4.90
2018,04,26,05,37,4.90
2018,04,26,05,38,4.90
2018,04,26,05,39,4.80
2018,04,26,05,40,4.80
2018,04,26,05,41,4.80
2018,04,26,05,42,4.80
2018,04,26,05,43,4.70
2018,04,26,05,44,4.70
2018,04,26,05,45,4.70
2018,04,26,05,46,4.70
2018,04,26,05,47,4.70
2018,04,26,05,48,4.70
2018,04,26,05,49,4.70
2018,04,26,05,50,4.70
2018,04,26,05,51,4.70
2018,04,26,05,52,4.70
2018,04,26,05,53,4.60
2018,04,26,05,54,4.60
2018,04,26,05,55,4.50
2018,04,26,05,56,4.50
2018,04,26,05,57,4.50
2018,04,26,05,58,4.50
2018,04,26,05,59,4.40
2018,04,26,06,00,4.40
2018,04,26,06,01,4.50
2018,04,26,06,02,4.50
2018,04,26,06,03,4.50
2018,04,26,06,04,4.50
2018,04,26,06,05,4.60
2018,04,26,06,06,4.60
2018,04,26,06,07,4.60
2018,04,26,06,08,4.60
2018,04,26,06,09,4.60
2018,04,26,06,10,4.60
2018,04,26,06,11,4.60
2018,04,26,06,12,4.60
2018,04,26,06,13,4.60
2018,04,26,06,14,4.60
2018,04,26,06,15,4.60
2018,04,26,06,16,4.60
2018,04,26,06,17,4.60
2018,04,26,06,18,4.60
2018,04,26,06,19,4.50
2018,04,26,06,20,4.50
2018,04,26,06,21,4.50
2018,04,26,06,22,4.50
2018,04,26,06,23,4.50
2018,04,26,06,24,4.50
2018,04,26,06,25,4.50
2018,04,26,06,26,4.40
2018,04,26,06,27,4.40
2018,04,26,06,28,4.40
2018,04,26,06,29,4.40
2018,04,26,06,30,4.40
2018,04,26,06,31,4.40
2018,04,26,06,32,4.40
2018,04,26,06,33,4.30
2018,04,26,06,34,4.40
2018,04,26,06,35,4.40
2018,04,26,06,36,4.40
2018,04,26,06,37,4.40
2018,04,26,06,38,4.50
2018,04,26,06,39,4.50
2018,04,26,06,40,4.50
2018,04,26,06,41,4.50
2018,04,26,06,42,4.50
2018,04,26,06,43,4.50
2018,04,26,06,44,4.60
2018,04,26,06,45,4.50
2018,04,26,06,46,4.50
2018,04,26,06,47,4.60
2018,04,26,06,48,4.60
2018,04,26,06,49,4.60
2018,04,26,06,50,4.60
2018,04,26,06,51,4.60
2018,04,26,06,52,4.60
2018,04,26,06,53,4.60
2018,04,26,06,54,4.60
2018,04,26,06,55,4.60
2018,04,26,06,56,4.60
2018,04,26,06,57,4.60
2018,04,26,06,58,4.60
2018,04,26,06,59,4.70
2018,04,26,07,00,4.70
2018,04,26,07,01,4.70
2018,04,26,07,02,4.70
2018,04,26,07,03,4.80
2018,04,26,07,04,4.70
2018,04,26,07,05,4.70
2018,04,26,07,06,4.70
2018,04,26,07,07,4.70
2018,04,26,07,08,4.70
2018,04,26,07,09,4.80
2018,04,26,07,10,4.80
2018,04,26,07,11,4.90
2018,04,26,07,12,4.90
2018,04,26,07,13,4.90
2018,04,26,07,14,5.00
2018,04,26,07,15,5.10
2018,04,26,07,16,5.10
2018,04,26,07,17,5.20
2018,04,26,07,18,5.20
2018,04,26,07,19,5.30
2018,04,26,07,20,5.30
2018,04,26,07,21,5.40
2018,04,26,07,22,5.40
2018,04,26,07,23,5.50
2018,04,26,07,24,5.50
2018,04,26,07,25,5.60
2018,04,26,07,26,5.70
2018,04,26,07,27,5.70
2018,04,26,07,28,5.80
2018,04,26,07,29,5.80
2018,04,26,07,30,5.90
2018,04,26,07,31,6.00
2018,04,26,07,32,6.10
2018,04,26,07,33,6.20
2018,04,26,07,34,6.30
2018,04,26,07,35,6.30
2018,04,26,07,36,6.40
2018,04,26,07,37,6.50
2018,04,26,07,38,6.50
2018,04,26,07,39,6.50
2018,04,26,07,40,6.60
2018,04,26,07,41,6.60
2018,04,26,07,42,6.60
2018,04,26,07,43,6.60
2018,04,26,07,44,6.70
2018,04,26,07,45,6.70
2018,04,26,07,46,6.80
2018,04,26,07,47,6.80
2018,04,26,07,48,6.90
2018,04,26,07,49,6.90
2018,04,26,07,50,7.00
2018,04,26,07,51,7.00
2018,04,26,07,52,7.10
2018,04,26,07,53,7.10
2018,04,26,07,54,7.20
2018,04,26,07,55,7.20
2018,04,26,07,56,7.30
2018,04,26,07,57,7.30
2018,04,26,07,58,7.40
2018,04,26,07,59,7.50
2018,04,26,08,00,7.60
2018,04,26,08,01,7.70
2018,04,26,08,02,7.80
2018,04,26,08,03,7.90
2018,04,26,08,04,7.90
2018,04,26,08,05,8.00
2018,04,26,08,06,8.00
2018,04,26,08,07,8.10
2018,04,26,08,08,8.10
2018,04,26,08,09,8.20
2018,04,26,08,10,8.20
2018,04,26,08,11,8.20
2018,04,26,08,12,8.20
2018,04,26,08,13,8.20
2018,04,26,08,14,8.30
2018,04,26,08,15,8.30
2018,04,26,08,16,8.40
2018,04,26,08,17,8.40
2018,04,26,08,18,8.50
2018,04,26,08,19,8.50
2018,04,26,08,20,8.60
2018,04,26,08,21,8.70
2018,04,26,08,22,8.70
2018,04,26,08,23,8.80
2018,04,26,08,24,8.90
2018,04,26,08,25,8.90
2018,04,26,08,26,9.00
2018,04,26,08,27,9.10
2018,04,26,08,28,9.20
2018,04,26,08,29,9.20
2018,04,26,08,30,9.20
2018,04,26,08,31,9.20
2018,04,26,08,32,9.20
2018,04,26,08,33,9.30
2018,04,26,08,34,9.30
2018,04,26,08,35,9.30
2018,04,26,08,36,9.40
2018,04,26,08,37,9.40
2018,04,26,08,38,9.40
2018,04,26,08,39,9.50
2018,04,26,08,40,9.50
2018,04,26,08,41,9.60
2018,04,26,08,42,9.70
2018,04,26,08,43,9.80
2018,04,26,08,44,9.90
2018,04,26,08,45,10.00
2018,04,26,08,46,10.00
2018,04,26,08,47,10.10
2018,04,26,08,48,10.20
2018,04,26,08,49,10.40
2018,04,26,08,50,10.50
2018,04,26,08,51,10.70
2018,04,26,08,52,10.80
2018,04,26,08,53,10.80
2018,04,26,08,54,10.90
2018,04,26,08,55,11.00
2018,04,26,08,56,11.10
2018,04,26,08,57,11.20
2018,04,26,08,58,11.30
2018,04,26,08,59,11.40
2018,04,26,09,00,11.40
2018,04,26,09,01,11.50
2018,04,26,09,02,11.60
2018,04,26,09,03,11.70
2018,04,26,09,04,11.70
2018,04,26,09,05,11.80
2018,04,26,09,06,11.80
2018,04,26,09,07,11.80
2018,04,26,09,08,11.80
2018,04,26,09,09,11.80
2018,04,26,09,10,11.80
2018,04,26,09,11,11.80
2018,04,26,09,12,11.90
2018,04,26,09,13,11.90
2018,04,26,09,14,12.00
2018,04,26,09,15,12.10
2018,04,26,09,16,12.20
2018,04,26,09,17,12.20
2018,04,26,09,18,12.30
2018,04,26,09,19,12.40
2018,04,26,09,20,12.50
2018,04,26,09,21,12.60
2018,04,26,09,22,12.70
2018,04,26,09,23,12.70
2018,04,26,09,24,12.80
2018,04,26,09,25,12.80
2018,04,26,09,26,12.80
2018,04,26,09,27,12.90
2018,04,26,09,28,12.90
2018,04,26,09,29,13.00
2018,04,26,09,30,13.10
2018,04,26,09,31,13.20
2018,04,26,09,32,13.30
2018,04,26,09,33,13.40
2018,04,26,09,34,13.40
2018,04,26,09,35,13.40
2018,04,26,09,36,13.50
2018,04,26,09,37,13.60
2018,04,26,09,38,13.70
2018,04,26,09,39,13.80
2018,04,26,09,40,13.90
2018,04,26,09,41,14.00
2018,04,26,09,42,14.10
2018,04,26,09,43,14.10
2018,04,26,09,44,14.20
2018,04,26,09,45,14.30
2018,04,26,09,46,14.30
2018,04,26,09,47,14.40
2018,04,26,09,48,14.50
2018,04,26,09,49,14.60
2018,04,26,09,50,14.70
2018,04,26,09,51,14.80
2018,04,26,09,52,14.90
2018,04,26,09,53,15.00
2018,04,26,09,54,15.00
2018,04,26,09,55,15.00
2018,04,26,09,56,15.10
2018,04,26,09,57,15.10
2018,04,26,09,58,15.10
2018,04,26,09,59,15.00
2018,04,26,10,00,15.00
2018,04,26,10,01,14.90
2018,04,26,10,02,14.80
2018,04,26,10,03,14.80
2018,04,26,10,04,14.80
2018,04,26,10,05,14.80
2018,04,26,10,06,14.70
2018,04,26,10,07,14.80
2018,04,26,10,08,14.80
2018,04,26,10,09,14.80
2018,04,26,10,10,14.80
2018,04,26,10,11,14.80
2018,04,26,10,12,14.90
2018,04,26,10,13,15.00
2018,04,26,10,14,15.00
2018,04,26,10,15,15.10
2018,04,26,10,16,15.20
2018,04,26,10,17,15.30
2018,04,26,10,18,15.30
2018,04,26,10,19,15.30
2018,04,26,10,20,15.40
2018,04,26,10,21,15.40
2018,04,26,10,22,15.40
2018,04,26,10,23,15.40
2018,04,26,10,24,15.40
2018,04,26,10,25,15.40
2018,04,26,10,26,15.50
2018,04,26,10,27,15.50
2018,04,26,10,28,15.60
2018,04,26,10,29,15.70
2018,04,26,10,30,15.80
2018,04,26,10,31,15.80
2018,04,26,10,32,15.90
2018,04,26,10,33,15.90
2018,04,26,10,34,15.90
2018,04,26,10,35,16.00
2018,04,26,10,36,16.10
2018,04,26,10,37,16.20
2018,04,26,10,38,16.30
2018,04,26,10,39,16.30
2018,04,26,10,40,16.30
2018,04,26,10,41,16.20
2018,04,26,10,42,16.20
2018,04,26,10,43,16.30
2018,04,26,10,44,16.40
2018,04,26,10,45,16.50
2018,04,26,10,46,16.60
2018,04,26,10,47,16.70
2018,04,26,10,48,16.80
2018,04,26,10,49,16.80
2018,04,26,10,50,16.80
2018,04,26,10,51,16.80
2018,04,26,10,52,16.80
2018,04,26,10,53,16.90
2018,04,26,10,54,16.90
2018,04,26,10,55,16.90
2018,04,26,10,56,16.90
2018,04,26,10,57,16.90
2018,04,26,10,58,17.00
2018,04,26,10,59,17.10
2018,04,26,11,00,17.20
2018,04,26,11,01,17.30
2018,04,26,11,02,17.40
2018,04,26,11,03,17.40
2018,04,26,11,04,17.50
2018,04,26,11,05,17.50
2018,04,26,11,06,17.50
2018,04,26,11,07,17.60
2018,04,26,11,08,17.70
2018,04,26,11,09,17.80
2018,04,26,11,10,17.90
2018,04,26,11,11,18.00
2018,04,26,11,12,18.20
2018,04,26,11,13,18.30
2018,04,26,11,14,18.40
2018,04,26,11,15,18.50
2018,04,26,11,16,18.70
2018,04,26,11,17,18.80
2018,04,26,11,18,18.90
2018,04,26,11,19,19.00
2018,04,26,11,20,19.10
2018,04,26,11,21,19.10
2018,04,26,11,22,19.10
2018,04,26,11,23,19.10
2018,04,26,11,24,19.10
2018,04,26,11,25,19.10
2018,04,26,11,26,19.20
2018,04,26,11,27,19.20
2018,04,26,11,28,19.20
2018,04,26,11,29,19.20
2018,04,26,11,30,19.20
2018,04,26,11,31,19.30
2018,04,26,11,32,19.30
2018,04,26,11,33,19.30
2018,04,26,11,34,19.30
2018,04,26,11,35,19.40
2018,04,26,11,36,19.50
2018,04,26,11,37,19.60
2018,04,26,11,38,19.60
2018,04,26,11,39,19.60
2018,04,26,11,40,19.60
2018,04,26,11,41,19.60
2018,04,26,11,42,19.60
2018,04,26,11,43,19.60
2018,04,26,11,44,19.70
2018,04,26,11,45,19.80
2018,04,26,11,46,19.90
2018,04,26,11,47,20.00
2018,04,26,11,48,20.00
2018,04,26,11,49,20.00
2018,04,26,11,50,20.10
2018,04,26,11,51,20.10
2018,04,26,11,52,20.20
2018,04,26,11,53,20.20
2018,04,26,11,54,20.30
2018,04,26,11,55,20.50
2018,04,26,11,56,20.60
2018,04,26,11,57,20.60
2018,04,26,11,58,20.70
2018,04,26,11,59,20.70
2018,04,26,12,00,20.80
2018,04,26,12,01,20.80
2018,04,26,12,02,20.80
2018,04,26,12,03,20.80
2018,04,26,12,04,20.80
2018,04,26,12,05,20.90
2018,04,26,12,06,20.90
2018,04,26,12,07,21.00
2018,04,26,12,08,21.00
2018,04,26,12,09,21.00
2018,04,26,12,10,21.00
2018,04,26,12,11,21.00
2018,04,26,12,12,21.00
2018,04,26,12,13,21.10
2018,04,26,12,14,21.10
2018,04,26,12,15,21.20
2018,04,26,12,16,21.20
2018,04,26,12,17,21.30
2018,04,26,12,18,21.30
2018,04,26,12,19,21.30
2018,04,26,12,20,21.30
2018,04,26,12,21,21.40
2018,04,26,12,22,21.50
2018,04,26,12,23,21.60
2018,04,26,12,24,21.70
2018,04,26,12,25,21.80
2018,04,26,12,26,21.90
2018,04,26,12,27,22.10
2018,04,26,12,28,22.20
2018,04,26,12,29,22.20
2018,04,26,12,30,22.20
2018,04,26,12,31,22.10
2018,04,26,12,32,22.10
2018,04,26,12,33,22.20
2018,04,26,12,34,22.20
2018,04,26,12,35,22.30
2018,04,26,12,36,22.30
2018,04,26,12,37,22.30
2018,04,26,12,38,22.40
2018,04,26,12,39,22.40
2018,04,26,12,40,22.50
2018,04,26,12,41,22.50
2018,04,26,12,42,22.60
2018,04,26,12,43,22.50
2018,04,26,12,44,22.40
2018,04,26,12,45,22.40
2018,04,26,12,46,22.40
2018,04,26,12,47,22.50
2018,04,26,12,48,22.50
2018,04,26,12,49,22.50
2018,04,26,12,50,22.50
2018,04,26,12,51,22.50
2018,04,26,12,52,22.60
2018,04,26,12,53,22.60
2018,04,26,12,54,22.60
2018,04,26,12,55,22.60
2018,04,26,12,56,22.70
2018,04,26,12,57,22.70
2018,04,26,12,58,22.70
2018,04,26,12,59,22.80
2018,04,26,13,00,22.90
2018,04,26,13,01,22.90
2018,04,26,13,02,23.00
2018,04,26,13,03,23.00
2018,04,26,13,04,23.10
2018,04,26,13,05,23.10
2018,04,26,13,06,23.20
2018,04,26,13,07,23.20
2018,04,26,13,08,23.20
2018,04,26,13,09,23.30
2018,04,26,13,10,23.40
2018,04,26,13,11,23.50
2018,04,26,13,12,23.60
2018,04,26,13,13,23.70
2018,04,26,13,14,23.70
2018,04,26,13,15,23.70
2018,04,26,13,16,23.80
2018,04,26,13,17,23.90
2018,04,26,13,18,23.90
2018,04,26,13,19,24.00
2018,04,26,13,20,24.10
2018,04,26,13,21,24.20
2018,04,26,13,22,24.20
2018,04,26,13,23,24.30
2018,04,26,13,24,24.40
2018,04,26,13,25,24.50
2018,04,26,13,26,24.50
2018,04,26,13,27,24.50
2018,04,26,13,28,24.60
2018,04,26,13,29,24.70
2018,04,26,13,30,24.80
2018,04,26,13,31,24.80
2018,04,26,13,32,24.80
2018,04,26,13,33,24.80
2018,04,26,13,34,24.80
2018,04,26,13,35,24.80
2018,04,26,13,36,24.80
2018,04,26,13,37,24.90
2018,04,26,13,38,25.00
2018,04,26,13,39,25.00
2018,04,26,13,40,25.10
2018,04,26,13,41,25.20
2018,04,26,13,42,25.40
2018,04,26,13,43,25.40
2018,04,26,13,44,25.60
2018,04,26,13,45,25.70
2018,04,26,13,46,25.80
2018,04,26,13,47,25.90
2018,04,26,13,48,25.90
2018,04,26,13,49,25.80
2018,04,26,13,50,25.80
2018,04,26,13,51,25.60
2018,04,26,13,52,25.60
2018,04,26,13,53,25.50
2018,04,26,13,54,25.50
2018,04,26,13,55,25.60
2018,04,26,13,56,25.60
2018,04,26,13,57,25.70
2018,04,26,13,58,25.70
2018,04,26,13,59,25.70
2018,04,26,14,00,25.70
2018,04,26,14,01,25.70
2018,04,26,14,02,25.70
2018,04,26,14,03,25.70
2018,04,26,14,04,25.70
2018,04,26,14,05,25.70
2018,04,26,14,06,25.70
2018,04,26,14,07,25.70
2018,04,26,14,08,25.70
2018,04,26,14,09,25.70
2018,04,26,14,10,25.70
2018,04,26,14,11,25.70
2018,04,26,14,12,25.70
2018,04,26,14,13,25.70
2018,04,26,14,14,25.70
2018,04,26,14,15,25.80
2018,04,26,14,16,25.80
2018,04,26,14,17,25.80
2018,04,26,14,18,25.80
2018,04,26,14,19,25.90
2018,04,26,14,20,25.90
2018,04,26,14,21,25.90
2018,04,26,14,22,26.00
2018,04,26,14,23,25.90
2018,04,26,14,24,25.90
2018,04,26,14,25,25.90
2018,04,26,14,26,25.90
2018,04,26,14,27,26.00
2018,04,26,14,28,26.00
2018,04,26,14,29,26.10
2018,04,26,14,30,26.10
2018,04,26,14,31,26.20
2018,04,26,14,32,26.20
2018,04,26,14,33,26.30
2018,04,26,14,34,26.20
2018,04,26,14,35,26.20
2018,04,26,14,36,26.20
2018,04,26,14,37,26.20
2018,04,26,14,38,26.20
2018,04,26,14,39,26.20
2018,04,26,14,40,26.20
2018,04,26,14,41,26.10
2018,04,26,14,42,26.10
2018,04,26,14,43,26.10
2018,04,26,14,44,26.00
2018,04,26,14,45,26.00
2018,04,26,14,46,26.00
2018,04,26,14,47,26.10
2018,04,26,14,48,26.10
2018,04,26,14,49,26.20
2018,04,26,14,50,26.20
2018,04,26,14,51,26.20
2018,04,26,14,52,26.20
2018,04,26,14,53,26.20
2018,04,26,14,54,26.20
2018,04,26,14,55,26.20
2018,04,26,14,56,26.20
2018,04,26,14,57,26.30
2018,04,26,14,58,26.30
2018,04,26,14,59,26.20
2018,04,26,15,00,26.20
2018,04,26,15,01,26.20
2018,04,26,15,02,26.20
2018,04,26,15,03,26.20
2018,04,26,15,04,26.30
2018,04,26,15,05,26.30
2018,04,26,15,06,26.40
2018,04,26,15,07,26.50
2018,04,26,15,08,26.60
2018,04,26,15,09,26.60
2018,04,26,15,10,26.50
2018,04,26,15,11,26.40
2018,04,26,15,12,26.30
2018,04,26,15,13,26.20
2018,04,26,15,14,26.20
2018,04,26,15,15,26.30
2018,04,26,15,16,26.30
2018,04,26,15,17,26.30
2018,04,26,15,18,26.30
2018,04,26,15,19,26.30
2018,04,26,15,20,26.30
2018,04,26,15,21,26.20
2018,04,26,15,22,26.20
2018,04,26,15,23,26.30
2018,04,26,15,24,26.20
2018,04,26,15,25,26.20
2018,04,26,15,26,26.20
2018,04,26,15,27,26.20
2018,04,26,15,28,26.20
2018,04,26,15,29,26.20
2018,04,26,15,30,26.20
2018,04,26,15,31,26.20
2018,04,26,15,32,26.20
2018,04,26,15,33,26.30
2018,04,26,15,34,26.30
2018,04,26,15,35,26.20
2018,04,26,15,36,26.20
2018,04,26,15,37,26.20
2018,04,26,15,38,26.20
2018,04,26,15,39,26.20
2018,04,26,15,40,26.20
2018,04,26,15,41,26.20
2018,04,26,15,42,26.10
2018,04,26,15,43,26.10
2018,04,26,15,44,26.10
2018,04,26,15,45,26.10
2018,04,26,15,46,26.10
2018,04,26,15,47,26.10
2018,04,26,15,48,26.20
2018,04,26,15,49,26.20
2018,04,26,15,50,26.20
2018,04,26,15,51,26.20
2018,04,26,15,52,26.20
2018,04,26,15,53,26.30
2018,04,26,15,54,26.20
2018,04,26,15,55,26.20
2018,04,26,15,56,26.20
2018,04,26,15,57,26.20
2018,04,26,15,58,26.20
2018,04,26,15,59,26.20
2018,04,26,16,00,26.30
2018,04,26,16,01,26.30
2018,04,26,16,02,26.20
2018,04,26,16,03,26.20
2018,04,26,16,04,26.20
2018,04,26,16,05,26.20
2018,04,26,16,06,26.30
2018,04,26,16,07,26.30
2018,04,26,16,08,26.30
2018,04,26,16,09,26.30
2018,04,26,16,10,26.30
2018,04,26,16,11,26.30
2018,04,26,16,12,26.30
2018,04,26,16,13,26.30
2018,04,26,16,14,26.30
2018,04,26,16,15,26.30
2018,04,26,16,16,26.30
2018,04,26,16,17,26.30
2018,04,26,16,18,26.30
2018,04,26,16,19,26.20
2018,04,26,16,20,26.20
2018,04,26,16,21,26.20
2018,04,26,16,22,26.20
2018,04,26,16,23,26.20
2018,04,26,16,24,26.20
2018,04,26,16,25,26.20
2018,04,26,16,26,26.30
2018,04,26,16,27,26.30
2018,04,26,16,28,26.30
2018,04,26,16,29,26.20
2018,04,26,16,30,26.20
2018,04,26,16,31,26.20
2018,04,26,16,32,26.20
2018,04,26,16,33,26.10
2018,04,26,16,34,26.10
2018,04,26,16,35,26.10
2018,04,26,16,36,26.10
2018,04,26,16,37,26.10
2018,04,26,16,38,26.20
2018,04,26,16,39,26.30
2018,04,26,16,40,26.30
2018,04,26,16,41,26.20
2018,04,26,16,42,26.20
2018,04,26,16,43,26.30
2018,04,26,16,44,26.20
2018,04,26,16,45,26.20
2018,04,26,16,46,26.20
2018,04,26,16,47,26.10
2018,04,26,16,48,26.10
2018,04,26,16,49,26.10
2018,04,26,16,50,26.10
2018,04,26,16,51,26.10
2018,04,26,16,52,26.00
2018,04,26,16,53,26.00
2018,04,26,16,54,26.10
2018,04,26,16,55,26.10
2018,04,26,16,56,26.10
2018,04,26,16,57,26.10
2018,04,26,16,58,26.10
2018,04,26,16,59,26.10
2018,04,26,17,00,26.10
2018,04,26,17,01,26.20
2018,04,26,17,02,26.20
2018,04,26,17,03,26.20
2018,04,26,17,04,26.20
2018,04,26,17,05,26.20
2018,04,26,17,06,26.20
2018,04,26,17,07,26.20
2018,04,26,17,08,26.20
2018,04,26,17,09,26.30
2018,04,26,17,10,26.30
2018,04,26,17,11,26.30
2018,04,26,17,12,26.40
2018,04,26,17,13,26.40
2018,04,26,17,14,26.40
2018,04,26,17,15,26.40
2018,04,26,17,16,26.40
2018,04,26,17,17,26.30
2018,04,26,17,18,26.30
2018,04,26,17,19,26.30
2018,04,26,17,20,26.30
2018,04,26,17,21,26.20
2018,04,26,17,22,26.20
2018,04,26,17,23,26.20
2018,04,26,17,24,26.20
2018,04,26,17,25,26.10
2018,04,26,17,26,26.10
2018,04,26,17,27,26.00
2018,04,26,17,28,26.00
2018,04,26,17,29,26.10
2018,04,26,17,30,26.10
2018,04,26,17,31,26.10
2018,04,26,17,32,26.10
2018,04,26,17,33,26.10
2018,04,26,17,34,26.10
2018,04,26,17,35,26.10
2018,04,26,17,36,26.10
2018,04,26,17,37,26.10
2018,04,26,17,38,26.10
2018,04,26,17,39,26.10
2018,04,26,17,40,26.10